Atlantic Bird 7

operational
NORAD ID: 37816 Int'l Des: 2011-051 Owner: EUTSA Country: F
HEOCIRCULARGSOGEO

About Atlantic Bird 7

Description loading...

Live Position

Loading 3D Globe...

Upcoming Passes

Altitude History

Altitude vs Time

uPlot chart will show altitude changes over time

Two-Line Element Set

1 37816U 11051A 26061.08749145 -.00000078 00000-0 00000+0 0 9991
2 37816 0.0679 2.5652 0001519 243.2735 298.2003 1.00271432 52800
Epoch: Mar 2, 2026 • Age: 32 hours

Current Status

Altitude 35780.7 km
Velocity 3.08 km/s
Sub-Earth Point -0.04°S, 7.3°W
Launch Date Sep 24, 2011
Age 14.4 years
Type other

Technical Details

Classification Payload
Mass 4600.00 kg
Dry Mass 2500.00 kg
Total Mass 4600.00 kg
Length 6.30 m
Diameter 2.70 m
Span 39.00 m
Shape Box + 2 Pan
Manufacturer ASTT
Bus Type Eurostar 3000
Phase Status Renamed
Owner/State EUTSA/F

Large Constellations

Loading constellations...